Location: Baumgartsau
(48.4586°N, 14.0864°E)
Time: 01:18:23
(UTC+00:00)

BREEZE-M DEB (TANK) - Pass Details

Date: 09 April 2020
Orbit: 320 x 11934 km, 49.7° (Epoch: 03 June)

Event Time Altitude Azimuth Distance (km) Brightness Sun altitude
Rises 18:28:44 0° 287° (WNW) 5,955 11.2 -7.5°
Reaches altitude 10° 18:34:11 10° 286° (WNW) 3,588 9.2 -8.4°
Maximum altitude 18:41:10 71° 204° (SSW) 645 3.7 -9.4°
Enters shadow 18:43:35 14° 121° (ESE) 1,294 4.7 -9.8°
